Location: Cuiry
(49.3858°N, 3.7708°E)
Time: 00:30:42
(UTC+00:00)

Cosmos 2219 Rocket - Pass Details

Date: 12 January 2026
Orbit: 828 x 844 km, 71.0° (Epoch: 9 February)

Event Time Altitude Azimuth Distance (km) Brightness Sun altitude
Rises 17:00:52 0° 283° (WNW) 3,402 6.3 -8.1°
Reaches altitude 10° 17:05:19 10° 316° (NW) 2,466 4.9 -8.8°
Maximum altitude 17:07:12 12° 335° (NNW) 2,354 4.6 -9.1°
Drops below altitude 10° 17:09:05 10° 355° (N) 2,465 4.5 -9.4°
Enters shadow 17:12:48 - 24° (NNE) 3,202 4.8 -9.9°
